FENGYUN 1C DEB, 43358

Orbit data source: Space-Track

FENGYUN 1C DEB, 43358 is space debris in SSO originally from a launch on Mon, 10 May 1999 UTC launched from the Taiyaun Space Center, China (TSC). Fengyun 1C debris stems from the Chinese weather satellite Fengyun-1C, which was intentionally destroyed by a Chinese anti-satellite missile in 2007. This event dramatically increased the amount of space debris, with thousands of trackable fragments posing hazards to satellites and human spaceflight. The Fengyun 1C debris cloud has become a focal point in discussions about space sustainability and the need for international regulations to prevent the creation of new debris.

Loading next visibility...
Identifier
43358, 1999-025EYP
Orbit
SSO
Country
Flag of CNCN / PRC
Related business
Manufacturer
Unknown
Mission
Spacecraft
Bus & Motor
Unknown
Mass
Unknown
Launch date (UTC)
1999-05-10 (27 years ago)
Launch vehicle
Unknown
Launch site
Taiyaun Space Center, China (TSC)
Object type
Payload
Rocket body
Debris
Shape & HBR
Unknown shape, 0.1 m
Radar Cross Section
Medium (>0.1 m² and <1 m²)

Expand to show TLE details & history
Last TLE update: 3 days ago

TLE from 3 days ago
0 FENGYUN 1C DEB
1 43358U 99025EYP 26170.73257636  .00000263  00000-0  36198-3 0  9994
2 43358  98.6939 269.4931 0364368  85.3285 278.9357 13.40915379562639
Epoch: 2026-06-19T17:34Z
TLE epoch observation values (Epoch: 2026-06-19T17:34:54.597Z)
Latitude
0.00001°
Longitude
97.80828°
Altitude
1,076.09 km
Speed
7.33 km/s
True Right ascension
17h 57m 58s
True Declination
0° 00' 00"
Sunlit
Object was in full shadow at epoch
Visualization orbit readout
Latitude
Unknown
Longitude
Unknown
Altitude
Unknown
Speed
Unknown
Apparent Right ascension
Unknown
Apparent Declination
Unknown
Sunlit
N/A
Visualization observer readout
Local Sidereal Time
21:36:21
Azimuth
Unknown
Elevation
Unknown
Doppler factor
Unknown
Orbital elements
Apogee altitude
1,375.724 km
Perigee altitude
830.537 km
Semi-major axis
7,481.267 km
Eccentricity
0.03644
Inclination
98.6939°
RAAN
269.4931°
Arg. of periapsis
85.3285°
True anomaly
274.78528°
Mean anomaly
278.9357°
Eccentric anomaly
276.86298°
Mean motion
3.35413 °/min
Orbital period
107.33 mins
BSTAR
0.00036198
Loading maneuver chart data...
Computing Atmospheric mass density...
Loading historical data...
Loading historical data...
Loading historical data...
Loading historical data...
Loading historical data...
Loading historical data...
Loading historical data...

Documentation

Showing up to 5 results
|